FW7063 Weather Reports


time (UTC)temp
F
wind
direction
speed
knots
gust
knots
rain 1hr
in
rain 24hr
in
rain mn
in
humidity
%
barometer
mb
20260505181604 57 123 0.0 1.7 0.00 0.00 0.00 66 1010.5
20260505181105 57 292 0.0 0.0 0.00 0.00 0.00 66 1010.5
20260505180603 57 312 0.0 0.9 0.00 0.00 0.00 66 1010.5
20260505180104 57 312 0.9 2.6 0.00 0.00 0.00 66 1010.5
20260505175603 57 304 0.9 1.7 0.00 0.00 0.00 65 1010.5
20260505175103 57 307 1.7 1.7 0.00 0.00 0.00 65 1010.2
20260505174603 57 290 1.7 2.6 0.00 0.00 0.00 64 1010.5
20260505174104 57 309 2.6 2.6 0.00 0.00 0.00 64 1010.5
20260505173604 57 35 0.9 1.7 0.00 0.00 0.00 64 1010.5
20260505173104 58 85 0.0 0.0 0.00 0.00 0.00 63 1010.5
20260505172604 58 85 0.0 0.0 0.00 0.00 0.00 63 1010.5
20260505172104 58 85 0.0 0.0 0.00 0.00 0.00 62 1010.5
20260505171603 58 85 0.0 0.0 0.00 0.00 0.00 62 1010.5
20260505171103 58 90 0.0 0.0 0.00 0.00 0.00 62 1010.5
20260505170604 58 85 0.0 0.0 0.00 0.00 0.00 62 1010.5
20260505170103 58 90 0.0 0.0 0.00 0.00 0.00 62 1010.5
20260505165603 58 90 0.0 0.9 0.00 0.00 0.00 62 1010.5
20260505165104 58 104 0.0 0.0 0.00 0.00 0.00 62 1010.5
20260505164604 58 104 0.0 0.9 0.00 0.00 0.00 60 1010.5
20260505164104 58 101 0.0 0.9 0.00 0.00 0.00 60 1010.5
20260505163604 58 101 0.0 0.9 0.00 0.00 0.00 60 1010.5
20260505163103 59 101 0.0 0.9 0.00 0.00 0.00 60 1010.5
20260505162604 59 89 0.0 1.7 0.00 0.00 0.00 60 1010.5
20260505162103 59 88 0.0 0.9 0.00 0.00 0.00 60 1010.5
20260505161603 59 66 0.0 0.9 0.00 0.00 0.00 60 1010.5
20260505161104 59 59 0.9 1.7 0.00 0.00 0.00 59 1010.5
20260505160604 59 87 0.0 0.9 0.00 0.00 0.00 58 1010.5
20260505160104 59 59 0.9 1.7 0.00 0.00 0.00 57 1010.5
20260505153107 59 64 1.7 1.7 0.00 0.00 0.00 57 1010.5
20260505152606 59 70 0.0 1.7 0.00 0.00 0.00 57 1010.8
20260505152104 59 73 0.9 1.7 0.00 0.00 0.00 59 1010.8
20260505151603 59 78 0.9 1.7 0.00 0.00 0.00 58 1010.5
20260505151104 59 73 1.7 1.7 0.00 0.00 0.00 58 1010.8
20260505150605 59 83 0.9 2.6 0.00 0.00 0.00 57 1010.8
20260505150103 60 73 0.9 0.9 0.00 0.00 0.00 57 1010.8
20260505140604 60 83 1.7 4.3 0.00 0.00 0.00 58 1011.2
20260505140113 60 68 0.9 2.6 0.00 0.00 0.00 58 1010.8
20260505130104 60 326 0.9 1.7 0.00 0.00 0.00 61 1011.2
20260505124604 59 111 0.9 6.1 0.00 0.00 0.00 57 1011.2
20260505124104 59 343 0.9 1.7 0.00 0.00 0.00 60 1011.2
20260505123605 59 127 0.9 2.6 0.00 0.00 0.00 61 1011.5
20260505123104 59 347 0.9 2.6 0.00 0.00 0.00 61 1011.2
20260505122606 59 323 2.6 4.3 0.00 0.00 0.00 59 1011.2
20260505122104 60 103 0.0 4.3 0.00 0.00 0.00 58 1011.2
20260505121603 60 82 2.6 4.3 0.00 0.00 0.00 61 1011.2
20260505121104 60 99 0.9 1.7 0.00 0.00 0.00 59 1011.2
20260505120603 60 300 0.0 2.6 0.00 0.00 0.00 59 1011.2
20260505120103 61 75 0.9 1.7 0.00 0.00 0.00 57 1011.2
20260505115604 61 89 2.6 6.1 0.00 0.00 0.00 56 1011.2
20260505115103 61 88 0.9 2.6 0.00 0.00 0.00 58 1011.2
20260505114604 61 174 2.6 5.2 0.00 0.00 0.00 58 1011.2
20260505114103 61 64 3.5 5.2 0.00 0.00 0.00 58 1011.5
20260505113604 61 340 1.7 4.3 0.00 0.00 0.00 61 1011.5
20260505113103 60 102 0.0 2.6 0.00 0.00 0.00 59 1011.5
20260505112604 60 116 2.6 7.0 0.00 0.00 0.00 60 1011.5
20260505112103 60 82 0.9 4.3 0.00 0.00 0.00 59 1011.5
20260505111604 61 120 2.6 2.6 0.00 0.00 0.00 58 1011.5
20260505111103 61 98 0.9 2.6 0.00 0.00 0.00 59 1011.2
20260505110603 61 250 1.7 5.2 0.00 0.00 0.00 60 1011.5
20260505102105 59 341 1.7 7.0 0.00 0.00 0.00 68 1011.5
20260505101605 58 253 1.7 5.2 0.00 0.00 0.00 67 1011.5
20260505101106 58 152 0.9 6.1 0.00 0.00 0.00 68 1011.9
20260505100606 58 348 5.2 7.0 0.00 0.00 0.00 67 1011.9
20260505100106 58 344 5.2 7.0 0.00 0.00 0.00 68 1011.9
20260505095605 58 332 1.7 4.3 0.00 0.00 0.00 67 1011.9
20260505095106 58 175 2.6 7.8 0.00 0.00 0.00 69 1012.2
20260505094606 58 77 0.9 4.3 0.00 0.00 0.00 68 1011.9
20260505094106 58 326 0.9 5.2 0.00 0.00 0.00 68 1012.2
20260505093603 58 83 3.5 7.8 0.00 0.00 0.00 66 1011.9
20260505093105 58 110 2.6 5.2 0.00 0.00 0.00 70 1011.9
20260505092605 57 58 2.6 5.2 0.00 0.00 0.00 70 1011.9
20260505092105 57 55 2.6 6.1 0.00 0.00 0.00 71 1011.9
20260505091606 56 358 1.7 7.8 0.00 0.00 0.00 72 1012.2
20260505091105 56 100 1.7 6.1 0.00 0.00 0.00 71 1011.9
20260505090606 55 21 0.9 2.6 0.00 0.00 0.00 72 1012.2
20260505085616 55 344 2.6 7.0 0.00 0.00 0.00 74 1012.2
20260505085105 55 2 5.2 8.7 0.00 0.00 0.00 74 1012.2
20260505084603 55 19 2.6 7.8 0.00 0.00 0.00 74 1012.5
20260505084105 55 316 6.1 11.3 0.00 0.00 0.00 73 1012.5
20260505083603 55 2 2.6 6.1 0.00 0.00 0.00 74 1012.5
20260505083104 55 161 0.9 4.3 0.00 0.00 0.00 74 1012.2
20260505082604 55 7 2.6 6.1 0.00 0.00 0.00 73 1012.2
20260505082104 55 357 1.7 6.1 0.00 0.00 0.00 73 1012.2
20260505081603 56 337 5.2 9.6 0.00 0.00 0.00 71 1012.2
20260505081103 56 22 3.5 6.1 0.00 0.00 0.00 71 1012.5
20260505080607 56 298 2.6 7.0 0.00 0.00 0.00 73 1012.2
20260505080104 56 323 2.6 7.0 0.00 0.00 0.00 71 1012.2
20260505075603 56 335 3.5 7.0 0.00 0.00 0.00 73 1012.2
20260505075105 56 97 1.7 4.3 0.00 0.00 0.00 74 1011.9
20260505074603 56 290 6.1 8.7 0.00 0.00 0.00 76 1012.2
20260505074104 56 14 1.7 7.8 0.00 0.00 0.00 75 1012.2
20260505073603 55 10 1.7 1.7 0.00 0.00 0.00 77 1012.2
20260505073103 55 52 1.7 4.3 0.00 0.00 0.00 78 1012.5
20260505072603 55 66 3.5 6.1 0.00 0.00 0.00 77 1012.5
20260505072104 55 349 0.9 7.0 0.00 0.00 0.00 79 1011.9
20260505071604 54 13 4.3 5.2 0.00 0.00 0.00 78 1012.2
20260505071104 54 51 0.9 4.3 0.00 0.00 0.00 79 1012.2
20260505070604 54 77 2.6 4.3 0.00 0.00 0.00 81 1012.2
20260505070103 54 57 0.9 4.3 0.00 0.00 0.00 81 1012.5
20260505065604 53 90 1.7 2.6 0.00 0.00 0.00 82 1012.5
20260505065104 53 98 1.7 6.1 0.00 0.00 0.00 82 1012.9
20260505064603 53 244 0.9 2.6 0.00 0.00 0.00 83 1012.2
20260505064103 53 114 0.9 5.2 0.00 0.00 0.00 83 1012.5
20260505063603 53 72 1.7 2.6 0.00 0.00 0.00 82 1012.9
20260505063104 53 76 0.9 2.6 0.00 0.00 0.00 84 1012.9
20260505062603 53 48 0.9 0.9 0.00 0.00 0.00 85 1012.9
20260505062104 53 75 0.9 1.7 0.00 0.00 0.00 85 1012.5
20260505061603 52 111 1.7 4.3 0.00 0.00 0.00 85 1012.5
20260505061103 52 63 1.7 2.6 0.00 0.00 0.00 86 1012.5
20260505060603 52 117 0.9 1.7 0.00 0.00 0.00 86 1012.5
20260505060103 52 121 0.9 1.7 0.00 0.00 0.00 87 1012.5
20260505055604 52 87 0.9 0.9 0.00 0.00 0.00 87 1012.5
20260505055103 52 76 0.9 0.9 0.00 0.00 0.00 88 1012.9
20260505054603 52 42 1.7 4.3 0.00 0.00 0.00 88 1012.5
20260505054103 51 345 0.0 1.7 0.00 0.00 0.00 88 1012.2
20260505053603 51 347 0.9 1.7 0.00 0.00 0.00 88 1012.5
20260505053104 51 342 1.7 4.3 0.00 0.00 0.00 87 1012.9
20260505052603 51 11 2.6 4.3 0.00 0.00 0.00 88 1012.5
20260505052103 51 18 0.9 4.3 0.00 0.00 0.00 87 1012.5
20260505051604 51 60 1.7 4.3 0.00 0.00 0.00 88 1012.5
20260505051103 51 343 2.6 4.3 0.00 0.00 0.00 87 1012.5
20260505050603 51 16 0.9 2.6 0.00 0.00 0.00 87 1012.9
20260505050104 51 25 0.9 1.7 0.00 0.00 0.00 87 1012.5
20260505041603 51 60 0.0 0.0 0.00 0.00 0.00 86 1012.9
20260505041104 51 60 0.0 0.0 0.00 0.00 0.00 86 1012.9
20260505040603 51 60 0.0 0.0 0.00 0.00 0.00 86 1012.9
20260505040104 51 59 1.7 1.7 0.00 0.00 0.00 86 1012.9
20260505035603 51 41 0.0 0.0 0.00 0.00 0.00 86 1012.9
20260505035103 51 41 0.0 0.9 0.00 0.00 0.00 86 1012.9
20260505034603 51 40 0.0 0.0 0.00 0.00 0.00 86 1012.9
20260505034104 51 45 0.9 0.9 0.00 0.00 0.00 86 1012.9
20260505033604 51 38 0.0 0.9 0.00 0.00 0.00 86 1012.9
20260505033104 51 28 0.0 0.9 0.00 0.00 0.00 86 1012.9
20260505032604 51 25 0.0 0.9 0.00 0.00 0.00 86 1012.9
20260505032103 51 36 0.0 1.7 0.00 0.00 0.00 86 1012.9
20260505031604 52 69 0.0 1.7 0.00 0.00 0.00 87 1012.9
20260505031104 52 61 1.7 2.6 0.00 0.00 0.00 87 1012.9
20260505030603 52 50 0.0 1.7 0.00 0.00 0.00 87 1012.9
20260505030105 52 164 0.0 0.9 0.00 0.00 0.00 87 1013.2
20260505025605 52 56 0.0 1.7 0.00 0.00 0.00 87 1012.9
20260505025103 52 48 0.0 0.9 0.00 0.00 0.00 87 1013.2
20260505024603 52 67 0.0 1.7 0.00 0.00 0.00 87 1013.2
20260505024105 52 39 0.9 2.6 0.00 0.00 0.00 87 1012.9
20260505023604 52 61 4.3 5.2 0.00 0.00 0.00 87 1012.9
20260505023105 52 79 1.7 1.7 0.00 0.00 0.00 87 1012.9
20260505022605 52 58 0.0 2.6 0.00 0.00 0.00 87 1012.9
20260505022103 52 53 0.0 2.6 0.00 0.00 0.00 86 1012.9
20260505021603 52 57 0.9 1.7 0.00 0.00 0.00 86 1012.9
20260505021105 52 47 0.9 0.9 0.00 0.00 0.00 86 1012.5
20260505020606 52 69 1.7 2.6 0.00 0.00 0.00 86 1012.9
20260505020103 52 45 0.9 0.9 0.00 0.00 0.00 86 1012.9
20260505015603 52 45 0.0 0.9 0.00 0.00 0.00 85 1013.2
20260505015103 53 29 0.0 0.9 0.00 0.00 0.00 85 1012.9
20260505014604 53 45 0.0 0.9 0.00 0.00 0.00 85 1012.9
20260505014103 53 68 0.9 1.7 0.00 0.00 0.00 85 1012.9
20260505013603 53 66 0.0 0.9 0.00 0.00 0.00 85 1012.9
20260505013104 53 64 0.9 0.9 0.00 0.00 0.00 85 1012.9
20260505012603 53 63 0.0 1.7 0.00 0.00 0.00 85 1013.2
20260505012103 53 66 0.9 1.7 0.00 0.00 0.00 85 1013.5
20260505011603 53 63 0.0 0.0 0.00 0.00 0.00 85 1013.5
20260505011104 53 66 0.9 1.7 0.00 0.00 0.00 85 1013.5
20260505010603 53 66 1.7 1.7 0.00 0.00 0.00 85 1013.5
20260505010105 53 58 0.0 0.9 0.00 0.00 0.00 85 1013.2
20260505005604 53 54 0.9 0.9 0.00 0.00 0.00 85 1013.5
20260505005105 54 210 0.0 0.9 0.00 0.00 0.00 85 1013.5
20260505004604 54 62 0.0 2.6 0.00 0.00 0.00 84 1013.5
20260505004104 54 184 1.7 2.6 0.00 0.00 0.00 84 1013.5
20260505003603 54 44 1.7 4.3 0.00 0.00 0.00 83 1013.5
20260505003103 54 50 1.7 4.3 0.00 0.00 0.00 82 1013.5
20260505002603 54 66 0.0 1.7 0.00 0.00 0.00 82 1013.2
20260505002103 54 55 0.0 0.9 0.00 0.00 0.00 82 1013.5
20260505001604 54 48 0.0 1.7 0.00 0.00 0.00 82 1013.5
20260505001103 54 41 0.0 1.7 0.00 0.00 0.00 82 1013.5
20260505000603 54 66 0.0 1.7 0.00 0.00 0.00 82 1013.5
20260505000103 54 32 0.9 2.6 0.00 0.00 0.00 82 1013.5
20260504235603 54 33 0.9 0.9 0.00 0.00 0.00 82 1013.9
20260504235103 54 66 0.0 2.6 0.00 0.00 0.00 82 1013.5
20260504234603 54 54 0.9 1.7 0.00 0.00 0.00 82 1013.5
20260504234105 54 44 2.6 2.6 0.00 0.00 0.00 82 1013.9
20260504233604 55 52 2.6 2.6 0.00 0.00 0.00 82 1013.5
20260504233103 55 53 0.0 1.7 0.00 0.00 0.00 83 1013.5
20260504232603 55 45 0.9 1.7 0.00 0.00 0.00 83 1013.5
20260504232103 55 32 0.9 1.7 0.00 0.00 0.00 83 1013.5
20260504231604 55 49 1.7 4.3 0.00 0.00 0.00 84 1013.9
20260504231105 55 43 0.0 4.3 0.00 0.00 0.00 84 1013.9
20260504230603 55 26 0.9 1.7 0.00 0.00 0.00 84 1013.9
20260504225603 55 43 0.0 0.0 0.00 0.00 0.00 84 1013.9
20260504225103 55 43 0.9 2.6 0.00 0.00 0.00 84 1013.9
20260504224603 55 67 0.0 0.9 0.00 0.00 0.00 84 1013.9
20260504224103 55 60 0.9 0.9 0.00 0.00 0.00 83 1013.9
20260504223604 55 62 0.0 0.9 0.00 0.00 0.00 83 1013.9
20260504223104 55 61 0.0 0.0 0.00 0.00 0.00 83 1013.9
20260504222603 55 61 0.0 0.0 0.00 0.00 0.00 82 1013.5
20260504222104 55 62 0.0 0.0 0.00 0.00 0.00 82 1013.9
20260504221605 55 61 0.0 0.0 0.00 0.00 0.00 82 1013.9
20260504221106 55 62 0.0 0.0 0.00 0.00 0.00 82 1013.9
20260504220603 55 62 0.0 0.0 0.00 0.00 0.00 82 1013.9
20260504215603 55 46 0.0 0.0 0.00 0.00 0.00 82 1013.5
20260504215103 55 46 0.0 0.0 0.00 0.00 0.00 82 1013.9
20260504214603 55 32 0.9 1.7 0.00 0.00 0.00 82 1013.9
20260504214103 55 52 0.9 0.9 0.00 0.00 0.00 82 1013.9
20260504213603 56 56 0.0 0.0 0.00 0.00 0.00 81 1013.9
20260504213104 56 58 0.9 1.7 0.00 0.00 0.00 81 1013.9
20260504212603 55 75 0.9 1.7 0.00 0.00 0.00 81 1014.2
20260504212104 55 49 2.6 4.3 0.00 0.00 0.00 82 1014.2
20260504211603 55 65 0.0 1.7 0.00 0.00 0.00 82 1013.9
20260504211103 55 40 0.0 0.9 0.00 0.00 0.00 82 1013.9
20260504210604 55 34 0.0 0.9 0.00 0.00 0.00 81 1013.9
20260504205604 55 52 0.0 0.0 0.00 0.00 0.00 81 1013.9
20260504205103 55 52 0.0 0.9 0.00 0.00 0.00 81 1013.9
20260504204603 55 60 0.9 1.7 0.00 0.00 0.00 81 1013.9
20260504204104 55 53 0.0 0.0 0.00 0.00 0.00 81 1013.9
20260504203603 55 41 0.0 1.7 0.00 0.00 0.00 81 1013.9
20260504203103 56 44 0.0 0.9 0.00 0.00 0.00 81 1013.9
20260504202603 56 49 0.0 0.9 0.00 0.00 0.00 80 1013.9
20260504202103 56 67 0.0 0.0 0.00 0.00 0.00 81 1013.9
20260504201608 56 52 0.0 0.9 0.00 0.00 0.00 81 1013.9
20260504201104 56 42 0.0 0.9 0.00 0.00 0.00 81 1013.9
20260504200603 56 45 0.0 0.9 0.00 0.00 0.00 81 1013.9
20260504195603 56 37 0.0 0.9 0.00 0.00 0.00 80 1013.9
20260504195104 56 77 0.9 1.7 0.00 0.00 0.00 80 1013.9
20260504194604 56 62 0.0 0.9 0.00 0.00 0.00 80 1013.9
20260504194103 56 66 0.9 1.7 0.00 0.00 0.00 80 1013.5
20260504193603 56 66 0.9 0.9 0.00 0.00 0.00 80 1013.5
20260504193111 56 87 0.9 1.7 0.00 0.00 0.00 80 1013.5
20260504192604 56 51 0.9 0.9 0.00 0.00 0.00 80 1013.5
20260504192105 56 75 1.7 4.3 0.00 0.00 0.00 79 1013.5
20260504191604 56 68 0.9 1.7 0.00 0.00 0.00 79 1013.5
20260504191103 56 21 0.9 1.7 0.00 0.00 0.00 79 1013.5
20260504190604 57 37 0.9 1.7 0.00 0.00 0.00 79 1013.5
20260504190108 57 50 0.9 2.6 0.00 0.00 0.00 78 1013.2
20260504185603 57 31 0.9 1.7 0.00 0.00 0.00 78 1013.2
20260504185104 57 45 0.9 2.6 0.00 0.00 0.00 78 1012.9
20260504184605 57 21 0.0 0.9 0.00 0.00 0.00 78 1013.2
20260504184103 57 22 0.9 1.7 0.00 0.00 0.00 78 1012.9
20260504183604 58 77 0.9 1.7 0.00 0.00 0.00 77 1013.2
20260504183104 58 20 0.0 2.6 0.00 0.00 0.00 77 1012.9
20260504182603 58 51 0.0 1.7 0.00 0.00 0.00 77 1013.2
20260504182103 58 81 2.6 4.3 0.00 0.00 0.00 77 1013.2